This demonstration page uses our WeatherBlox Daily Observations layout. Learn more.

41.55636, -103.73856

Hourly Observations for April 29, 2019

Temp ( °F °C ) Dew Point ( °F °C ) Humidity (%) Winds ( mph kmh ) Pressure ( in mb ) Visibility ( mi km ) Precip ( " mm )
12:58 am 00:58 Clear 43 6.2 32 -0.2 64 64 N 25 41 29.81 1010 10 16.0934 0 0
1:58 am 01:58 Partly Cloudy 40 4.5 29 -1.8 64 64 N 22 35 29.83 1010 10 16.0934 0 0
2:58 am 02:58 Mostly Cloudy 38 3.2 27 -2.8 65 65 N 17 28 29.88 1012 10 16.0934 0 0
3:58 am 03:58 Mostly Clear 36 2.4 26 -3.4 66 66 N 13 20 29.92 1013 10 16.0934 0 0
4:58 am 04:58 Mostly Cloudy 36 2.1 25 -3.7 66 66 N 12 19 29.93 1014 10 16.0934 0 0
5:58 am 05:58 Clear 31 -0.4 19 -7.2 60 60 N 21 33 29.98 1015 10 16.0934 0 0
6:58 am 06:58 Clear 29 -1.6 17 -8.1 62 62 N 18 30 30.05 1018 10 16.0934 0 0
7:58 am 07:58 Clear 26 -3.2 16 -9 65 65 N 20 31 30.05 1018 10 16.0934 0 0
8:58 am 08:58 Clear 26 -3.5 14 -9.9 62 62 N 20 31 30.08 1019 10 16.0934 0 0
9:58 am 09:58 Clear 25 -4 14 -9.9 64 64 NNW 17 28 30.13 1020 10 16.0934 0 0
10:58 am 10:58 Clear 24 -4.4 15 -9.7 67 67 NNW 22 35 30.16 1022 10 16.0934 0 0
11:58 am 11:58 Sunny 24 -4.7 15 -9.7 68 68 NNW 21 33 30.22 1023 10 16.0934 0 0
12:58 pm 12:58 Sunny 24 -4.2 15 -9.3 68 68 NNW 18 30 30.23 1024 10 16.0934 0 0
1:58 pm 13:58 Sunny 26 -3.3 17 -8.5 68 68 NNW 22 35 30.24 1024 10 16.0934 0 0
2:58 pm 14:58 Mostly Cloudy 26 -3.4 19 -7.5 74 74 N 23 37 30.24 1024 10 16.0934 0 0
3:58 pm 15:58 Mostly Cloudy 29 -1.9 19 -7.4 66 66 N 15 24 30.27 1025 10 16.0934 0 0
6:58 pm 18:58 Mostly Sunny 33 0.7 18 -7.7 54 54 N 7 11 30.24 1024 10 16.0934 0 0
7:58 pm 19:58 Mostly Cloudy 33 0.8 17 -8.3 51 51 NE 6 9 30.26 1025 10 16.0934 0 0
8:58 pm 20:58 Cloudy with Light Snow 29 -1.5 25 -3.9 84 84 NNE 8 13 30.27 1025 1.75 2.816345 0 0
9:58 pm 21:58 Mostly Cloudy with Scattered Snow Showers 28 -2.1 26 -3.5 90 90 N 6 9 30.25 1024 3 4.82802 0.01 0.254
10:58 pm 22:58 Cloudy with Snow 28 -2.1 26 -3.4 91 91 NNE 6 9 30.25 1024 1 1.60934 0.02 0.508
11:58 pm 23:58 Cloudy with Snow 28 -2.2 26 -3.3 92 92 ENE 6 9 30.24 1024 5 8.0467 0.02 0.508

Powered by AerisWeather